Вернуться в каталог

METEOR 2-12 DEB

АктивенPO
NORAD 59994·DEBRIS·🇷🇺 Russia

Запущен Feb 6, 1985 с Plesetsk Cosmodrome

Loading…

Ближайшие Пролёты (ближайшие 24 часа)

TLE

УстаревающийSource: Space-Track

Эпоха: Sep 7, 2026, 16:35 UTC

1 59994U 85013E   26250.69158802  .00000747  00000-0  49114-3 0  9997
2 59994  82.5172 217.0802 0026336 257.5578 279.6106 14.00616840650341

Отслеживайте METEOR 2-12 DEB в реальном времени с AllMySat

Download on the App Store